Location: Mexico
(19.4000°N, 99.1500°W)
Time: 16:48:50
(UTC-06:00)

ISS - Pass Details

Date: 18 July 2019
Orbit: 409 x 418 km, 51.6° (Epoch: 23 July)

Event Time Altitude Azimuth Distance (km) Brightness Sun altitude
Rises 04:32:30 0° 343° (NNW) 2,327 0.2 -20.8°
Reaches altitude 10° 04:35:12 10° 7° (N) 1,465 -0.5 -20.3°
Maximum altitude 04:37:16 16° 46° (NE) 1,170 -0.5 -19.8°
Drops below altitude 10° 04:39:21 10° 85° (E) 1,462 -0.1 -19.4°
Sets 04:42:01 0° 109° (ESE) 2,321 0.6 -18.9°
